TimePDT,TemperatureF,Dew PointF,Humidity,Sea Level PressureIn,VisibilityMPH,Wind Direction,Wind SpeedMPH,Gust SpeedMPH,PrecipitationIn,Events,Conditions,WindDirDegrees,DateUTC
12:53 AM,33.1,27.0,78,30.18,10.0,Calm,Calm,-,N/A,,Clear,0,2013-10-19 07:53:00
1:53 AM,28.9,25.0,85,30.19,10.0,Calm,Calm,-,N/A,,Clear,0,2013-10-19 08:53:00
2:53 AM,30.0,27.0,88,30.18,10.0,Calm,Calm,-,N/A,,Clear,0,2013-10-19 09:53:00
3:53 AM,26.1,24.1,92,30.19,10.0,Calm,Calm,-,N/A,,Clear,0,2013-10-19 10:53:00
4:53 AM,27.0,23.0,85,30.19,10.0,Calm,Calm,-,N/A,,Clear,0,2013-10-19 11:53:00
5:53 AM,24.1,21.9,91,30.22,10.0,Calm,Calm,-,N/A,,Clear,0,2013-10-19 12:53:00
6:53 AM,21.9,19.9,92,30.26,10.0,Calm,Calm,-,N/A,,Clear,0,2013-10-19 13:53:00
7:53 AM,26.1,21.9,84,30.27,10.0,Calm,Calm,-,N/A,,Clear,0,2013-10-19 14:53:00
8:53 AM,35.1,28.9,78,30.26,10.0,Calm,Calm,-,N/A,,Clear,0,2013-10-19 15:53:00
9:53 AM,45.0,35.1,68,30.26,10.0,Calm,Calm,-,N/A,,Clear,0,2013-10-19 16:53:00
10:53 AM,51.1,34.0,52,30.22,10.0,Calm,Calm,-,N/A,,Clear,0,2013-10-19 17:53:00
11:53 AM,55.9,30.9,39,30.22,10.0,Calm,Calm,-,N/A,,Clear,0,2013-10-19 18:53:00
12:53 PM,61.0,30.9,32,30.19,10.0,Calm,Calm,-,N/A,,Clear,0,2013-10-19 19:53:00
1:53 PM,66.9,27.0,22,30.16,10.0,Calm,Calm,-,N/A,,Clear,0,2013-10-19 20:53:00
2:53 PM,69.1,26.1,20,30.13,10.0,Calm,Calm,-,N/A,,Clear,0,2013-10-19 21:53:00
3:53 PM,71.1,28.0,20,30.13,10.0,Calm,Calm,-,N/A,,Clear,0,2013-10-19 22:53:00
4:53 PM,71.1,25.0,18,30.12,10.0,ESE,3.5,-,N/A,,Clear,120,2013-10-19 23:53:00
5:53 PM,64.9,30.0,27,30.13,10.0,Calm,Calm,-,N/A,,Clear,0,2013-10-20 00:53:00
6:53 PM,55.0,33.1,43,30.17,10.0,North,5.8,-,N/A,,Clear,350,2013-10-20 01:53:00
7:53 PM,45.0,32.0,60,30.19,10.0,Calm,Calm,-,N/A,,Clear,0,2013-10-20 02:53:00
8:53 PM,44.1,30.9,60,30.18,10.0,Calm,Calm,-,N/A,,Clear,0,2013-10-20 03:53:00
9:53 PM,42.1,28.9,60,30.17,10.0,NE,3.5,-,N/A,,Clear,40,2013-10-20 04:53:00
10:53 PM,39.9,28.0,63,30.17,10.0,Calm,Calm,-,N/A,,Clear,0,2013-10-20 05:53:00
11:53 PM,34.0,28.9,82,30.17,10.0,ESE,3.5,-,N/A,,Clear,120,2013-10-20 06:53:00